Temp
68 68 64 64 55 49 45 51 53 57 57 59 63 60 59 60 60 53 64 69 69 69 72 73 74 76 76 76 76 76 76 77 77 78 78 78 77 76 76 75 75 75 75 74 74 73 72 71 71
66 73 64 55 48 43 47 52 54 57 62 62 61 60 58 58 64 63 64 69 70 70 72 73 72 75 76 76 76 76 76 77 77 77 78 78 77 76 76 75 74 74 74 73 73 72 71 70 70
70 70 59 51 44 45 47 52 54 60 61 60 58 61 60 61 63 65 67 69 69 69 71 72 72 75 75 75 75 75 76 76 77 77 77 78 78 77 75 74 74 75 74 73 73 72 70 70 69
66 63 57 50 45 52 53 54 58 57 60 62 60 57 62 65 65 66 69 68 67 68 70 71 72 74 75 75 75 75 75 76 76 76 77 77 77 76 76 74 74 74 73 73 72 71 69 69 69
62 56 49 46 47 53 54 60 60 58 57 58 60 58 60 63 64 65 66 68 66 66 68 70 72 73 74 74 75 75 75 75 75 75 75 76 76 75 74 73 72 72 72 72 71 70 68 68 68
57 54 46 43 48 55 56 58 60 57 59 58 57 56 57 61 62 63 64 65 66 66 67 70 69 70 72 73 74 74 74 74 75 75 75 75 74 75 74 72 72 72 72 72 70 69 68 67 67
54 49 44 43 48 54 59 60 58 56 55 58 62 55 58 60 66 65 65 64 66 66 66 68 69 69 68 70 71 72 73 73 73 74 74 73 73 74 72 71 71 71 71 71 70 68 67 66 66
55 51 44 43 49 51 59 61 59 58 59 62 64 56 56 61 64 63 61 62 62 64 66 66 67 68 69 69 67 68 70 70 71 71 69 68 70 71 71 68 68 70 71 70 69 67 67 66 64
57 47 43 47 50 54 58 58 61 63 58 59 63 61 64 61 61 58 57 59 59 63 63 64 66 67 67 67 67 66 67 67 67 67 65 64 67 68 66 64 66 69 70 70 68 67 66 64 62
52 44 49 55 55 53 57 55 57 58 59 55 60 64 62 59 57 59 57 59 59 60 61 63 64 65 66 68 66 66 68 66 66 65 65 64 63 63 63 62 63 66 66 68 68 67 64 58 49
52 49 53 58 59 59 56 55 56 53 56 58 62 59 60 60 58 59 58 58 60 60 60 61 63 64 65 66 65 64 63 62 62 63 63 61 61 60 59 59 57 57 58 57 59 56 51 49 48
49 57 58 59 59 57 55 57 56 54 61 63 62 61 60 61 61 60 59 59 58 59 62 61 62 63 64 64 64 63 63 61 61 63 63 60 59 57 56 55 54 54 53 52 51 49 49 47 49
52 54 58 59 58 57 57 55 55 57 62 62 62 62 60 61 60 61 60 60 58 59 59 60 60 62 63 62 61 61 62 61 60 60 61 61 59 57 55 54 53 52 51 50 48 47 47 46 48
53 53 55 57 59 57 56 52 55 60 57 61 62 61 57 55 54 54 55 54 56 60 60 59 59 61 61 61 60 61 60 60 59 59 59 59 59 58 56 52 52 51 50 49 48 47 45 45 45
54 51 54 56 54 55 55 50 53 61 60 60 59 55 53 52 52 50 52 52 53 55 56 59 58 59 60 60 59 59 59 59 60 60 59 59 58 56 54 51 51 51 49 49 47 46 45 44 45
49 45 43 54 53 53 53 47 58 61 55 59 56 49 50 50 49 50 51 51 52 52 53 55 59 58 58 58 58 58 58 58 60 60 59 58 57 56 53 51 51 51 49 48 46 44 44 43 42
42 38 41 49 54 52 50 46 58 60 55 55 49 48 48 47 48 48 49 50 50 50 51 52 53 54 55 56 56 56 57 56 57 59 59 59 58 57 55 53 51 52 49 46 46 43 44 42 41
40 38 41 42 49 48 46 47 52 57 55 52 46 44 45 44 45 48 48 49 50 49 50 51 52 52 52 53 53 53 54 54 54 57 57 58 57 56 55 54 53 51 47 45 44 44 42 42 42
44 42 39 45 52 45 47 45 50 55 52 48 45 44 44 43 46 47 47 47 48 48 48 48 48 49 50 48 49 50 49 50 52 52 53 56 56 56 54 52 51 50 48 45 45 43 43 40 40
45 41 41 45 49 47 45 46 48 45 45 46 44 43 43 44 44 45 45 45 45 45 46 46 47 47 48 48 46 48 48 48 48 50 51 51 51 52 53 52 51 49 46 44 45 45 41 40 39
42 40 40 43 45 45 41 41 43 44 45 45 44 43 43 42 41 43 43 42 43 43 43 45 45 46 46 47 48 48 47 45 46 46 47 47 48 49 49 49 48 48 47 44 42 41 41 40 38
38 47 45 43 38 34 41 30 38 39 39 40 39 38 39 40 42 43 42 41 42 40 42 44 44 44 45 45 44 42 41 40 41 41 43 44 45 46 46 47 46 46 44 42 41 43 42 39 37
43 46 43 41 36 33 35 30 35 39 35 36 37 38 38 39 40 40 41 42 41 40 39 40 43 43 42 43 42 41 39 40 39 41 40 41 43 43 43 43 43 43 43 42 42 41 40 39 44
47 43 41 36 34 27 36 34 35 37 39 36 37 37 39 39 38 39 40 41 39 39 39 39 41 41 41 41 40 39 37 37 38 38 38 38 39 40 40 41 40 40 40 40 41 40 40 41 41
42 38 29 27 25 27 36 31 36 38 41 39 37 37 38 38 38 37 37 37 38 37 37 40 39 39 39 39 39 38 37 36 36 36 36 35 36 37 38 38 37 38 38 39 39 38 38 39 41
39 41 31 21 22 28 33 31 35 38 40 40 40 38 38 37 38 37 38 37 37 37 37 37 37 37 37 38 38 38 38 36 36 35 35 35 34 34 36 36 36 36 37 37 37 36 36 36 36
40 35 41 31 15 21 30 30 36 38 36 37 36 37 35 35 36 36 36 36 36 36 36 37 37 37 37 37 37 36 36 36 35 36 34 34 34 37 36 33 33 33 34 34 34 34 33 33 34
41 44 33 30 18 14 26 28 30 31 33 35 34 35 35 36 36 36 36 36 36 36 36 36 36 36 36 36 35 36 35 35 35 34 34 34 34 34 33 34 33 33 32 32 31 32 32 32 34
38 35 38 38 31 21 17 27 36 36 36 35 35 37 35 35 34 35 36 37 37 36 36 36 36 36 36 36 35 34 34 34 34 32 33 32 32 32 32 33 32 33 32 32 29 29 30 30 31
40 38 38 30 26 26 26 30 40 40 38 37 37 37 35 35 35 35 36 36 36 36 36 35 35 35 35 35 34 34 34 33 31 31 32 32 31 31 32 32 32 32 32 32 30 30 30 29 30
MSLP
1014.98 1014.82 1014.97 1015.38 1017.11 1017.46 1016.84 1015.67 1014.56 1014.05 1013.68 1013.33 1013.22 1013.42 1013.64 1013.74 1014.14 1014.87 1014.14 1014.18 1014.49 1014.95 1015.33 1015.72 1016.04 1016.29 1016.43 1016.66 1017.01 1017.33 1017.57 1017.77 1017.97 1018.18 1018.28 1018.41 1018.60 1018.81 1019.13 1019.38 1019.49 1019.61 1019.80 1019.92 1019.92 1020.04 1020.14 1020.13 1020.19
1015.11 1014.72 1015.39 1016.55 1017.49 1017.73 1016.86 1015.28 1014.47 1013.80 1013.32 1013.16 1013.23 1013.38 1013.63 1013.78 1013.87 1014.30 1014.46 1014.44 1014.42 1014.83 1015.30 1015.68 1015.99 1016.29 1016.56 1016.81 1017.03 1017.30 1017.55 1017.76 1017.94 1018.17 1018.32 1018.47 1018.56 1018.94 1019.11 1019.41 1019.64 1019.84 1020.00 1020.15 1020.17 1020.27 1020.29 1020.34 1020.28
1015.06 1015.23 1016.57 1017.28 1017.96 1017.40 1016.10 1014.90 1014.22 1013.68 1013.39 1013.29 1013.36 1013.38 1013.59 1013.73 1013.81 1014.04 1013.92 1014.25 1014.64 1015.00 1015.26 1015.57 1015.97 1016.29 1016.60 1016.95 1017.21 1017.41 1017.57 1017.75 1017.94 1018.14 1018.37 1018.50 1018.48 1018.93 1019.28 1019.61 1019.76 1019.89 1020.11 1020.29 1020.33 1020.28 1020.43 1020.46 1020.39
1015.34 1016.07 1017.45 1017.68 1017.52 1016.05 1015.13 1014.45 1013.92 1013.73 1013.51 1013.40 1013.50 1013.77 1013.75 1013.74 1013.87 1013.78 1013.86 1014.29 1014.74 1015.05 1015.26 1015.60 1015.95 1016.25 1016.55 1016.90 1017.21 1017.47 1017.66 1017.82 1018.04 1018.24 1018.41 1018.63 1018.68 1019.03 1019.63 1019.89 1020.07 1020.21 1020.40 1020.48 1020.54 1020.56 1020.70 1020.67 1020.73
1016.10 1017.21 1018.00 1017.94 1017.17 1015.63 1014.58 1013.96 1013.60 1013.66 1013.62 1013.56 1013.64 1013.95 1014.18 1014.33 1014.39 1014.22 1014.28 1014.51 1014.78 1015.21 1015.32 1015.57 1015.85 1016.20 1016.45 1016.76 1017.10 1017.40 1017.69 1017.91 1018.09 1018.29 1018.52 1018.74 1018.91 1019.12 1019.85 1020.10 1020.24 1020.36 1020.53 1020.54 1020.67 1020.74 1020.88 1020.92 1020.97
1017.09 1017.88 1018.57 1018.27 1017.01 1015.55 1014.53 1013.93 1013.57 1013.68 1013.67 1013.76 1013.89 1014.10 1014.46 1014.55 1014.57 1014.54 1014.54 1014.62 1014.70 1015.08 1015.27 1015.49 1015.80 1016.10 1016.42 1016.73 1017.06 1017.33 1017.60 1017.88 1018.11 1018.34 1018.59 1018.86 1019.10 1019.28 1019.96 1020.28 1020.45 1020.60 1020.70 1020.74 1020.90 1021.04 1021.20 1021.22 1021.23
1017.44 1018.44 1018.62 1017.97 1017.06 1015.75 1014.63 1014.00 1013.73 1013.75 1013.70 1013.75 1013.69 1014.16 1014.40 1014.56 1014.33 1014.42 1014.54 1014.64 1014.77 1014.90 1015.15 1015.43 1015.69 1015.99 1016.31 1016.60 1016.94 1017.24 1017.52 1017.81 1018.10 1018.40 1018.64 1018.92 1019.02 1019.56 1020.12 1020.50 1020.69 1020.79 1020.90 1020.95 1021.12 1021.35 1021.48 1021.60 1021.64
1017.52 1018.55 1018.60 1017.78 1016.96 1015.98 1015.24 1014.65 1014.20 1014.02 1013.80 1013.58 1013.54 1014.09 1014.23 1014.14 1014.41 1014.64 1014.82 1014.92 1015.02 1015.17 1015.16 1015.33 1015.60 1015.88 1016.20 1016.56 1016.89 1017.21 1017.47 1017.71 1018.00 1018.29 1018.59 1018.88 1018.89 1019.67 1020.17 1020.60 1020.80 1020.83 1020.95 1021.05 1021.31 1021.54 1021.65 1021.74 1021.76
1017.40 1018.74 1018.73 1017.61 1016.70 1016.12 1015.48 1015.30 1014.57 1014.26 1014.15 1014.12 1013.90 1014.03 1014.03 1014.22 1014.75 1015.08 1015.19 1015.33 1015.36 1015.31 1015.29 1015.34 1015.54 1015.84 1016.17 1016.45 1016.72 1017.08 1017.37 1017.69 1018.03 1018.30 1018.62 1018.93 1018.96 1019.61 1020.10 1020.50 1020.81 1020.82 1020.84 1020.93 1021.20 1021.44 1021.56 1021.74 1021.84
1017.87 1018.77 1018.06 1016.94 1016.37 1016.16 1015.85 1015.67 1015.39 1015.09 1014.75 1014.65 1014.40 1014.15 1014.38 1014.72 1015.05 1015.33 1015.52 1015.40 1015.34 1015.36 1015.25 1015.33 1015.44 1015.65 1015.99 1016.27 1016.53 1016.85 1017.05 1017.44 1017.86 1018.21 1018.52 1018.88 1019.06 1019.45 1019.86 1020.32 1020.80 1020.90 1020.96 1021.03 1021.25 1021.46 1021.65 1021.90 1022.11
1017.71 1017.90 1017.35 1016.56 1016.22 1016.03 1015.82 1015.77 1015.63 1015.46 1015.11 1014.84 1014.69 1014.54 1014.64 1014.86 1015.28 1015.44 1015.29 1015.36 1014.86 1014.60 1014.95 1014.95 1015.26 1015.42 1015.79 1016.08 1016.46 1016.80 1016.99 1017.34 1017.79 1018.12 1018.47 1018.85 1019.07 1019.37 1019.73 1020.14 1020.75 1020.94 1021.04 1021.23 1021.34 1021.67 1022.11 1022.30 1022.40
1017.65 1017.14 1016.88 1016.35 1016.11 1016.16 1015.94 1015.72 1015.75 1015.63 1014.81 1014.49 1014.70 1014.92 1014.87 1015.14 1015.41 1015.31 1015.07 1014.88 1014.73 1014.55 1014.30 1014.39 1014.60 1015.06 1015.40 1015.75 1016.19 1016.64 1017.06 1017.44 1017.80 1018.03 1018.41 1018.91 1019.28 1019.64 1019.95 1020.25 1020.68 1021.05 1021.20 1021.41 1021.65 1021.99 1022.21 1022.45 1022.52
1017.20 1017.02 1016.74 1016.30 1016.13 1016.06 1015.90 1015.88 1016.03 1015.39 1014.56 1014.71 1014.70 1014.70 1015.29 1015.66 1015.52 1015.49 1015.12 1014.61 1014.64 1014.60 1014.37 1014.12 1014.43 1014.76 1015.02 1015.62 1016.09 1016.55 1017.03 1017.51 1017.91 1018.23 1018.47 1018.84 1019.18 1019.58 1019.90 1020.26 1020.61 1021.15 1021.47 1021.71 1022.02 1022.30 1022.59 1022.80 1022.77
1016.95 1017.04 1016.84 1016.32 1015.87 1015.83 1015.93 1015.79 1015.88 1014.63 1014.54 1014.81 1015.01 1015.40 1016.32 1016.68 1016.84 1016.34 1016.03 1015.86 1015.19 1014.65 1014.22 1014.16 1014.50 1014.56 1014.92 1015.47 1015.90 1016.42 1016.87 1017.23 1017.72 1018.18 1018.53 1018.84 1019.09 1019.40 1019.82 1020.28 1020.61 1020.99 1021.34 1021.61 1022.00 1022.38 1022.69 1022.87 1022.91
1017.07 1017.28 1016.87 1015.95 1015.63 1015.68 1015.61 1015.89 1015.54 1014.52 1014.84 1015.09 1015.68 1016.68 1017.31 1017.80 1017.72 1017.98 1017.90 1017.18 1016.35 1015.75 1015.03 1014.36 1014.27 1014.58 1015.10 1015.54 1015.91 1016.41 1016.81 1017.26 1017.64 1017.98 1018.32 1018.68 1019.02 1019.42 1019.84 1020.32 1020.72 1020.80 1021.22 1021.62 1022.04 1022.32 1022.61 1022.92 1023.04
1017.68 1017.82 1017.50 1016.05 1015.75 1015.62 1015.65 1015.79 1015.22 1014.68 1015.24 1015.46 1016.64 1017.76 1018.43 1019.10 1019.20 1019.03 1018.72 1018.25 1017.43 1016.51 1016.16 1015.88 1015.37 1015.70 1015.86 1015.98 1016.23 1016.65 1017.11 1017.42 1017.67 1018.05 1018.30 1018.62 1018.92 1019.23 1019.76 1020.22 1020.49 1020.63 1021.19 1021.60 1022.02 1022.41 1022.69 1022.91 1023.10
1018.52 1018.34 1017.94 1016.81 1015.89 1015.85 1016.02 1016.30 1015.33 1014.89 1015.44 1016.25 1017.78 1018.78 1019.47 1020.10 1020.03 1019.98 1019.65 1019.17 1018.63 1018.08 1017.24 1016.90 1016.74 1016.86 1016.92 1016.98 1017.12 1017.36 1017.66 1017.98 1018.09 1018.21 1018.45 1018.64 1018.87 1019.16 1019.50 1019.89 1020.16 1020.44 1021.04 1021.59 1021.93 1022.39 1022.58 1022.81 1022.95
1018.67 1018.70 1018.05 1017.36 1016.55 1016.36 1016.52 1016.42 1016.33 1015.17 1016.04 1017.09 1018.61 1019.72 1020.62 1021.14 1021.39 1021.14 1020.77 1020.21 1019.71 1019.25 1018.76 1018.38 1018.17 1018.07 1017.88 1017.80 1017.86 1018.08 1018.34 1018.67 1018.77 1018.81 1018.90 1018.97 1019.09 1019.26 1019.53 1019.77 1020.06 1020.47 1021.07 1021.57 1021.92 1022.17 1022.43 1022.57 1022.71
1018.30 1018.41 1018.24 1017.44 1016.61 1016.75 1016.53 1016.68 1016.51 1016.08 1016.50 1017.90 1019.42 1020.39 1021.44 1022.00 1022.36 1021.91 1021.46 1021.26 1020.92 1020.33 1019.90 1019.85 1019.52 1019.60 1019.12 1018.95 1019.24 1019.37 1019.80 1019.82 1019.90 1019.80 1019.67 1019.49 1019.39 1019.44 1019.69 1020.00 1020.20 1020.49 1020.92 1021.15 1021.55 1022.03 1022.37 1022.74 1022.79
1018.39 1018.42 1018.14 1017.57 1016.84 1016.97 1016.90 1016.99 1017.46 1017.65 1018.19 1018.95 1020.16 1021.33 1022.14 1022.68 1022.71 1022.55 1022.30 1022.19 1021.84 1021.78 1021.59 1021.35 1021.28 1021.04 1020.85 1020.56 1020.52 1020.54 1020.55 1020.82 1020.90 1020.76 1020.63 1020.64 1020.31 1020.06 1019.90 1019.96 1020.22 1020.46 1020.86 1021.19 1021.54 1021.87 1022.38 1022.53 1022.72
1018.24 1018.26 1018.09 1017.87 1017.40 1017.17 1017.39 1017.64 1018.00 1019.33 1019.92 1020.71 1021.71 1022.44 1023.04 1023.37 1023.47 1023.28 1023.01 1022.98 1023.10 1022.98 1022.89 1022.68 1022.54 1022.31 1022.25 1021.98 1021.49 1021.24 1021.22 1021.56 1021.73 1021.85 1021.78 1021.58 1021.28 1020.95 1020.57 1020.51 1020.53 1020.54 1020.90 1021.10 1021.32 1021.63 1021.99 1022.30 1022.50
1017.97 1017.33 1017.59 1017.90 1018.25 1018.35 1018.12 1019.09 1018.84 1020.21 1021.26 1021.95 1022.77 1023.31 1023.78 1023.91 1024.03 1024.04 1023.90 1023.55 1023.60 1024.04 1023.95 1023.71 1023.60 1023.37 1023.29 1023.12 1023.16 1023.30 1023.60 1023.74 1024.04 1023.81 1023.37 1022.66 1022.15 1021.90 1021.63 1021.21 1020.97 1021.05 1021.16 1021.19 1021.24 1021.35 1021.67 1022.02 1022.27
1017.26 1017.15 1017.67 1018.12 1018.73 1019.23 1019.31 1020.02 1019.41 1020.69 1022.03 1023.01 1023.76 1024.01 1024.27 1024.58 1024.61 1024.48 1024.28 1024.39 1024.62 1024.48 1024.62 1024.50 1024.29 1024.21 1024.27 1024.10 1024.19 1024.30 1024.53 1024.64 1024.40 1024.15 1023.89 1023.54 1023.10 1022.83 1022.74 1022.33 1021.72 1021.42 1021.37 1021.41 1021.55 1021.45 1021.50 1021.63 1021.74
1017.14 1017.59 1018.37 1019.36 1019.91 1019.99 1019.34 1020.00 1019.63 1020.26 1020.97 1022.96 1023.96 1024.53 1024.70 1024.83 1025.26 1025.33 1025.24 1025.05 1024.90 1024.92 1024.77 1024.80 1024.69 1024.88 1024.81 1024.84 1024.93 1025.06 1025.34 1025.52 1025.12 1024.96 1024.80 1024.67 1024.37 1024.06 1023.58 1023.39 1022.68 1022.01 1021.45 1021.40 1021.50 1021.52 1021.71 1021.46 1021.35
1017.35 1018.21 1019.27 1020.52 1021.17 1020.36 1019.95 1020.67 1019.59 1019.86 1020.30 1022.20 1023.74 1024.69 1025.07 1025.30 1025.30 1025.47 1025.82 1025.74 1025.63 1025.56 1025.46 1025.47 1025.26 1025.48 1025.45 1025.35 1025.40 1025.40 1025.77 1025.86 1025.66 1025.64 1025.51 1025.36 1024.77 1024.46 1023.85 1024.40 1023.88 1022.93 1021.98 1021.44 1021.18 1021.17 1021.43 1021.36 1021.20
1017.28 1017.75 1018.77 1020.04 1021.55 1021.06 1020.48 1020.64 1020.57 1021.30 1021.58 1022.56 1023.73 1024.63 1025.03 1025.23 1025.57 1025.70 1025.90 1026.18 1026.09 1026.10 1026.29 1026.02 1026.05 1026.18 1026.03 1025.87 1025.78 1025.79 1026.03 1025.84 1025.75 1025.81 1025.80 1025.63 1025.40 1024.97 1024.68 1024.75 1024.36 1023.48 1022.58 1021.90 1021.36 1021.16 1020.93 1020.90 1020.72
1017.08 1017.71 1018.04 1019.62 1021.88 1021.96 1020.82 1021.08 1021.85 1022.38 1022.93 1023.71 1024.36 1024.90 1025.32 1025.67 1025.74 1025.93 1026.19 1026.40 1026.46 1026.36 1026.25 1026.28 1026.45 1026.59 1026.59 1026.55 1026.43 1026.33 1026.16 1025.96 1025.86 1025.63 1025.45 1025.52 1025.36 1025.00 1024.69 1024.62 1024.25 1023.46 1022.78 1022.09 1021.74 1021.25 1020.95 1020.53 1020.23
1016.87 1017.29 1018.47 1020.01 1021.84 1022.13 1021.27 1021.01 1020.89 1022.21 1022.89 1023.75 1024.36 1024.91 1025.28 1025.70 1025.93 1026.12 1026.25 1026.51 1026.58 1026.57 1026.55 1026.55 1026.64 1026.76 1026.79 1026.74 1026.64 1026.56 1026.43 1026.36 1026.46 1026.48 1026.48 1026.20 1025.70 1025.12 1024.87 1024.23 1023.66 1023.12 1022.62 1021.78 1021.82 1021.52 1020.92 1020.35 1019.84
1017.56 1017.70 1018.66 1019.90 1021.16 1021.72 1021.85 1020.33 1019.33 1020.50 1021.83 1022.92 1023.95 1024.35 1024.84 1025.39 1025.77 1025.95 1026.15 1026.38 1026.32 1026.41 1026.46 1026.47 1026.49 1026.56 1026.56 1026.48 1026.42 1026.28 1026.28 1026.26 1026.34 1026.38 1026.35 1026.08 1025.66 1025.13 1024.84 1024.22 1023.77 1023.02 1022.01 1021.55 1021.52 1021.17 1020.79 1020.02 1019.47
1017.99 1018.39 1018.92 1020.18 1021.42 1021.86 1021.85 1020.02 1019.48 1020.18 1021.46 1022.62 1023.32 1024.06 1024.69 1025.14 1025.70 1025.85 1026.00 1026.08 1026.24 1026.35 1026.32 1026.40 1026.41 1026.39 1026.23 1026.24 1026.31 1026.20 1026.18 1026.04 1026.05 1025.80 1025.50 1025.11 1024.76 1024.32 1024.01 1023.56 1023.20 1022.68 1022.06 1021.60 1021.21 1020.48 1020.17 1019.76 1019.15
Wind_Speed
5 6 2 5 5 6 2 4 1 1 1 2 1 3 2 2 3 5 3 7 8 11 11 12 13 14 13 15 15 14 13 13 13 11 10 13 15 16 13 10 9 8 7 6 7 6 6 7 6
4 2 6 3 7 4 5 4 1 2 4 3 0 1 1 1 1 2 3 7 9 11 11 10 12 13 14 14 15 15 14 14 14 13 11 13 14 12 11 9 8 5 5 4 5 5 6 6 5
4 3 5 5 4 4 4 2 2 2 1 1 1 1 1 2 2 7 6 9 8 8 10 10 12 13 14 14 14 13 13 13 13 13 12 11 13 10 9 5 4 3 3 2 4 5 5 5 6
4 5 5 5 1 4 5 3 3 1 2 2 2 2 3 1 2 5 6 9 9 7 8 10 14 14 14 14 14 13 12 12 12 11 12 11 11 9 4 4 5 4 3 2 2 4 4 5 5
5 4 4 3 4 5 2 4 3 2 1 2 0 2 3 4 4 3 5 7 9 7 6 10 14 13 14 15 13 12 12 11 10 11 11 10 9 12 6 5 4 4 4 3 3 4 3 4 4
5 4 5 1 4 5 3 2 4 1 2 1 2 3 2 3 1 3 4 6 8 9 7 10 12 11 12 13 13 12 11 10 10 11 11 10 10 8 7 5 5 5 4 3 3 3 3 3 3
5 4 3 3 3 5 2 2 4 3 1 1 3 1 2 4 7 7 7 5 7 7 7 7 9 11 12 12 11 11 11 10 9 10 11 11 10 5 6 4 5 4 4 3 3 3 2 2 3
5 5 1 3 3 4 6 7 1 2 3 2 4 3 5 4 6 5 4 4 5 6 6 8 8 8 8 7 11 10 10 10 9 11 9 7 10 6 7 5 3 5 5 4 4 3 2 2 3
4 5 1 4 1 5 5 6 4 5 3 3 3 4 4 3 5 3 3 1 3 4 6 6 8 8 7 6 7 10 11 10 9 9 9 7 5 6 6 6 6 6 6 8 7 6 5 3 1
5 4 8 5 3 3 3 1 4 5 7 3 5 5 3 3 3 6 6 7 6 7 7 7 7 8 8 7 7 7 7 5 5 6 7 4 6 6 6 6 6 7 6 6 7 6 5 3 0
4 5 5 4 5 5 3 4 3 1 7 6 8 4 2 4 6 8 9 9 11 7 4 9 9 8 8 7 4 3 2 3 4 6 6 5 4 4 4 4 3 3 4 2 4 1 2 2 1
1 7 5 5 2 4 3 3 6 3 12 6 7 6 5 5 8 9 10 9 7 8 10 9 10 9 8 5 5 4 4 3 3 4 6 4 3 4 4 3 4 4 3 5 4 3 3 3 4
5 4 4 5 8 7 3 7 6 9 13 9 8 5 4 8 9 7 9 7 5 8 6 9 8 9 8 7 4 4 4 4 4 4 4 4 4 4 4 4 4 3 3 3 3 3 3 3 4
2 2 6 7 10 5 5 2 4 9 3 8 5 8 11 11 10 11 15 13 12 6 6 7 8 7 7 7 6 4 4 4 4 4 4 5 4 4 4 4 4 4 4 4 4 4 4 4 3
1 5 8 8 2 4 6 0 8 11 6 8 6 10 11 13 14 14 12 11 11 11 11 2 6 6 7 6 5 4 4 4 4 4 6 6 5 5 5 4 4 4 4 5 3 2 2 2 2
3 2 3 5 2 0 4 8 6 10 4 11 9 9 11 14 13 13 13 13 14 14 16 14 10 6 3 4 4 4 3 3 2 3 3 5 5 6 5 4 5 4 4 4 4 3 3 3 3
3 3 5 8 3 3 3 6 9 9 5 9 9 8 10 10 15 14 14 14 15 14 15 16 15 13 8 7 5 5 5 4 2 1 1 4 5 5 5 5 4 4 4 4 3 2 3 3 3
6 5 5 5 4 1 4 10 9 16 3 5 10 10 11 12 12 12 14 14 15 15 16 16 13 16 9 5 5 5 5 5 5 4 3 1 2 4 4 3 4 4 3 3 3 4 3 2 3
3 4 5 7 8 1 7 5 12 10 5 9 10 12 11 11 8 12 14 15 15 18 19 18 17 15 11 6 4 5 4 4 6 7 8 7 3 2 3 2 2 3 4 5 4 2 4 2 2
7 7 7 5 7 3 4 11 7 12 6 11 13 11 10 9 11 13 14 15 16 15 16 17 17 16 12 8 4 4 2 4 3 6 9 11 9 7 3 3 4 4 3 4 5 4 2 2 5
4 5 5 7 4 4 2 9 4 5 12 15 13 11 9 10 10 11 13 13 13 15 14 15 15 15 14 13 9 8 6 5 8 10 9 8 11 11 7 6 4 3 2 4 4 5 6 4 4
4 7 7 4 3 4 3 4 2 3 8 10 8 7 7 8 8 9 11 12 12 9 9 11 13 13 13 13 11 12 7 6 4 4 5 8 11 11 11 11 7 5 3 4 5 4 5 3 5
7 3 3 2 3 2 3 3 5 6 3 5 4 6 6 6 7 9 10 10 9 7 7 7 11 13 11 12 11 8 9 6 4 7 10 11 10 11 12 10 7 7 5 5 5 4 6 5 7
5 3 5 5 3 1 6 7 4 6 9 7 6 6 7 7 6 7 6 7 8 7 7 7 9 10 9 9 10 10 10 8 8 8 8 7 6 7 10 12 10 7 5 5 5 5 6 6 7
3 5 1 4 2 6 4 2 4 5 11 13 11 7 6 6 6 7 7 7 7 8 8 7 10 11 9 9 9 8 7 6 7 7 6 8 7 6 10 10 10 7 6 7 5 4 6 6 7
6 8 7 7 4 5 5 6 2 5 11 12 9 7 6 7 5 6 6 6 7 7 6 6 7 7 8 9 9 8 6 4 3 3 3 4 4 5 6 8 9 9 8 7 5 4 4 5 6
5 5 1 6 3 4 5 2 2 6 8 7 7 6 6 6 6 7 6 6 6 5 6 7 7 7 7 7 7 7 7 8 8 9 7 6 5 7 8 6 7 7 7 7 7 5 7 5 5
3 4 4 3 2 4 4 5 5 9 11 8 8 8 7 6 7 6 6 6 3 4 4 4 4 4 3 3 2 1 2 3 5 5 7 7 8 9 11 12 10 9 7 6 6 7 7 6 6
1 0 3 2 4 5 2 7 1 15 14 14 9 10 9 8 8 7 6 6 6 4 4 4 3 3 3 3 3 3 4 5 5 5 7 7 7 7 7 9 10 12 12 10 6 6 8 7 8
1 5 6 5 6 3 2 10 3 12 12 9 8 7 7 6 7 7 7 6 5 5 4 4 4 4 5 5 4 5 6 6 6 7 8 8 8 8 9 10 10 11 12 12 12 12 10 8 10
Wind_Direction
332 323 89 42 56 63 298 278 149 89 50 216 218 141 199 195 161 210 299 169 139 149 164 170 171 170 162 158 156 156 156 155 153 147 147 146 120 112 104 98 95 92 85 85 84 75 66 61 51
346 359 41 83 82 67 279 274 171 218 211 176 70 84 29 279 190 147 101 189 157 155 163 170 169 169 164 161 161 162 162 162 162 161 156 140 123 113 110 111 112 95 79 73 79 77 69 58 50
330 47 78 88 106 165 196 238 230 288 278 69 49 180 178 220 328 175 227 151 138 153 162 167 167 170 165 165 166 167 167 169 170 170 168 167 133 124 114 124 135 197 133 134 102 81 71 65 55
29 12 33 79 244 246 190 202 229 144 317 17 126 341 310 54 199 207 135 135 139 153 163 164 170 173 172 170 171 171 174 177 178 177 174 161 136 114 200 200 208 207 175 150 89 82 72 70 60
37 55 48 31 283 273 219 172 117 33 306 260 149 308 297 10 5 86 141 138 152 160 168 167 172 176 178 172 176 176 177 181 186 187 175 161 138 132 177 204 192 181 191 169 127 97 73 65 54
41 93 54 317 284 286 317 257 109 65 2 337 12 324 301 261 254 186 175 163 159 163 171 174 176 174 177 176 178 180 179 179 185 181 169 156 145 129 192 203 205 206 206 183 147 123 108 81 51
100 77 201 223 256 307 274 312 124 173 228 21 187 290 264 231 221 186 196 178 160 169 162 172 180 183 178 177 178 181 182 184 194 191 180 179 142 158 173 195 224 219 229 191 162 146 125 90 48
101 89 311 269 301 286 326 333 345 314 296 257 157 246 276 245 176 168 180 205 177 175 179 175 178 182 183 183 180 185 187 187 194 183 175 170 129 178 201 178 245 226 225 190 172 177 169 100 59
93 61 254 249 21 289 332 7 330 294 294 347 300 178 254 132 124 142 149 201 236 214 196 182 179 181 182 179 190 193 194 192 188 177 164 151 140 153 148 152 211 224 224 191 186 190 182 147 100
93 123 223 213 183 253 283 339 309 353 315 290 292 306 65 143 175 186 211 215 211 220 209 192 182 182 180 192 191 197 189 181 181 175 162 164 155 156 152 159 212 227 238 185 195 205 173 111 353
168 197 220 245 220 202 255 268 215 299 299 212 266 268 292 229 232 236 238 220 215 212 194 191 191 187 180 192 180 191 168 154 169 175 166 179 158 160 158 154 207 212 208 167 166 193 105 200 277
177 249 237 277 336 324 263 312 313 225 248 239 255 272 275 263 257 258 260 237 217 211 215 197 188 181 186 170 177 177 174 172 180 184 172 168 159 168 166 170 181 193 185 177 168 169 183 218 256
210 253 264 269 280 241 255 240 245 259 265 296 298 314 339 354 339 328 303 290 282 251 243 217 177 182 181 170 163 159 175 174 178 179 175 172 174 178 168 180 164 181 173 178 182 189 212 242 258
192 260 264 274 265 268 237 261 137 275 282 310 10 23 46 46 23 23 16 7 360 312 238 207 205 185 162 175 167 171 156 167 165 168 189 193 182 178 177 170 178 180 186 181 180 193 211 240 254
295 323 317 263 279 234 169 307 226 253 314 295 346 67 58 41 33 26 4 9 9 3 348 343 189 168 170 175 151 150 167 152 166 181 183 194 186 186 176 174 181 192 180 181 172 196 182 249 279
328 40 329 293 165 100 113 264 266 284 243 285 34 85 64 41 37 26 17 11 16 29 29 26 27 37 60 106 108 123 139 134 144 171 185 198 191 183 176 178 194 181 172 179 177 176 202 225 223
346 239 216 309 320 132 137 249 272 284 271 306 74 79 68 48 35 25 21 21 19 23 35 34 34 32 38 44 49 51 63 58 71 91 170 199 193 189 187 190 199 166 172 181 181 185 180 200 215
221 220 236 237 271 42 252 245 278 278 323 233 123 83 67 55 39 31 27 27 29 29 34 38 37 26 20 41 48 45 55 40 33 37 43 334 224 192 177 187 198 170 162 176 174 189 198 199 201
167 210 228 253 260 277 265 279 260 292 288 110 110 95 83 65 51 47 43 36 34 34 35 32 34 21 28 11 17 29 36 8 23 16 14 15 3 208 195 213 212 179 192 204 194 151 193 241 149
242 251 255 284 257 224 294 294 31 23 15 103 108 94 87 83 61 52 47 41 42 42 39 36 35 31 26 24 6 23 35 41 42 23 23 21 8 353 320 242 231 211 195 195 188 177 179 219 181
213 206 218 231 303 292 327 295 108 47 69 71 66 76 75 75 70 60 56 51 45 40 36 40 37 38 32 28 29 26 27 20 16 11 9 4 10 15 3 335 295 233 219 225 208 192 188 219 226
255 232 212 235 111 232 83 278 44 91 71 65 75 75 79 79 69 64 59 58 54 40 38 44 43 42 38 32 41 48 53 46 8 353 349 4 9 13 18 17 4 331 297 238 229 218 219 159 226
222 172 172 160 139 54 319 110 259 132 106 116 100 95 90 79 82 76 71 66 51 47 43 38 51 47 39 44 43 45 41 24 6 13 10 7 7 11 8 7 13 13 346 313 283 244 217 208 238
153 102 51 39 90 256 212 158 250 193 179 151 137 128 111 101 81 68 58 59 53 40 50 46 50 46 43 47 47 49 44 20 26 17 18 4 359 357 4 354 356 353 1 348 305 273 260 241 234
110 84 338 347 344 226 169 130 252 337 139 145 138 133 115 104 98 88 67 60 60 49 40 37 41 37 29 40 43 40 38 32 33 17 7 360 359 359 359 346 340 339 337 334 327 302 263 253 251
188 168 163 204 208 245 274 242 301 46 98 119 130 132 119 107 103 88 85 73 65 61 57 59 55 45 31 26 20 20 21 27 40 24 1 357 348 339 335 331 325 328 331 332 324 310 286 268 248
191 186 199 106 41 66 224 42 115 108 101 119 135 136 141 131 117 119 110 109 101 87 70 60 50 40 29 28 20 8 1 2 355 354 0 348 333 331 331 307 305 314 318 325 325 315 303 279 261
166 163 70 5 165 261 278 268 199 178 172 173 170 174 168 164 159 151 140 134 122 122 122 116 140 167 187 180 183 191 293 305 297 307 303 312 314 325 326 324 323 319 308 314 320 312 297 288 287
128 156 83 131 151 182 242 255 233 177 175 177 191 195 182 177 173 166 162 168 164 154 165 168 169 186 221 236 241 244 257 252 257 245 251 256 267 274 286 298 303 308 316 313 291 280 285 288 288
349 202 165 152 227 227 172 261 92 156 165 171 194 188 189 176 180 185 179 178 183 200 213 221 225 229 241 242 239 254 263 256 250 250 250 246 247 251 257 269 280 286 292 296 297 298 293 277 282